RYR83TK LIRP-EGSS

Flight info

Callsign RYR83TK
Flight time 1h 50m
Altitude 38000
Route SPEZI DCT LUKIM DCT AOSTA DCT ORSUD DCT MOLUS DCT IBODI DCT GOTED DCT TRO DCT CLM DCT KOPOR DCT SOSUN DCT SUBIP UM733 BANVA
Aircraft B738/M-SADFGIJ1LRWYZ/SB1

Departure

Time 2026-05-07 17:16
Airport Pisa International Airport (LIRP)

Arrival

Time 2026-05-07 19:06
Airport London Stansted Airport (EGSS)
Time Latitude Longitude Altitude Speed Heading
2026-05-07 16:48 43.69752 10.40029 14 ft 0 kts
2026-05-07 17:09 43.69742 10.40027 15 ft 2 kts
2026-05-07 17:10 43.69726 10.40023 15 ft 2 kts 14°
2026-05-07 17:10 43.69710 10.40016 16 ft 2 kts 22°
2026-05-07 17:10 43.69695 10.40005 15 ft 2 kts 44°
2026-05-07 17:10 43.69688 10.39986 18 ft 2 kts 86°
2026-05-07 17:11 43.69688 10.39973 17 ft 1 kts 94°
2026-05-07 17:13 43.69687 10.39980 17 ft 4 kts 94°
2026-05-07 17:13 43.69666 10.40050 15 ft 9 kts 143°
2026-05-07 17:13 43.69591 10.40068 14 ft 12 kts 175°
2026-05-07 17:14 43.69506 10.40082 14 ft 12 kts 171°
2026-05-07 17:14 43.69424 10.40102 14 ft 12 kts 168°
2026-05-07 17:14 43.69354 10.40157 14 ft 12 kts 130°
2026-05-07 17:14 43.69322 10.40214 14 ft 4 kts 127°
2026-05-07 17:15 43.69300 10.40254 14 ft 8 kts 128°
2026-05-07 17:15 43.69243 10.40313 14 ft 12 kts 183°
2026-05-07 17:15 43.69174 10.40243 13 ft 14 kts 216°
2026-05-07 17:15 43.68996 10.40061 13 ft 65 kts 217°
2026-05-07 17:16 43.68435 10.39487 14 ft 133 kts 217°
2026-05-07 17:16 43.67563 10.38589 141 ft 175 kts 220°
2026-05-07 17:16 43.66625 10.37641 1176 ft 159 kts 218°
2026-05-07 17:16 43.65778 10.36764 2187 ft 148 kts 218°
2026-05-07 17:17 43.64925 10.35883 2877 ft 157 kts 218°
2026-05-07 17:17 43.64050 10.34982 3673 ft 157 kts 218°
2026-05-07 17:17 43.63183 10.34040 4399 ft 161 kts 228°
2026-05-07 17:17 43.62783 10.32635 5143 ft 161 kts 269°
2026-05-07 17:18 43.63160 10.31167 5841 ft 172 kts 302°
2026-05-07 17:18 43.63932 10.29740 6162 ft 201 kts 301°
2026-05-07 17:18 43.64806 10.28107 6455 ft 220 kts 302°
2026-05-07 17:18 43.65736 10.26386 6967 ft 228 kts 302°
2026-05-07 17:19 43.66699 10.24608 7630 ft 232 kts 302°
2026-05-07 17:19 43.67666 10.22828 8445 ft 232 kts 303°
2026-05-07 17:19 43.68731 10.21086 9006 ft 246 kts 303°
2026-05-07 17:19 43.69783 10.19070 9220 ft 271 kts 301°
2026-05-07 17:20 43.70871 10.16862 9782 ft 283 kts 300°
2026-05-07 17:20 43.71995 10.14580 10413 ft 294 kts 301°
2026-05-07 17:20 43.73205 10.12132 10636 ft 322 kts 301°
2026-05-07 17:20 43.74502 10.09534 11232 ft 333 kts 301°
2026-05-07 17:21 43.75837 10.06882 12047 ft 338 kts 301°
2026-05-07 17:21 43.77190 10.04207 12908 ft 341 kts 301°
2026-05-07 17:21 43.78561 10.01501 13731 ft 346 kts 301°
2026-05-07 17:21 43.79935 9.98789 14461 ft 350 kts 301°
2026-05-07 17:22 43.81356 9.95987 15279 ft 352 kts 301°
2026-05-07 17:22 43.82763 9.93211 16088 ft 354 kts 301°
2026-05-07 17:22 43.84183 9.90406 16856 ft 357 kts 301°
2026-05-07 17:22 43.85612 9.87580 17617 ft 360 kts 301°
2026-05-07 17:23 43.87032 9.84768 18365 ft 363 kts 300°
2026-05-07 17:23 43.88484 9.81890 19029 ft 365 kts 300°
2026-05-07 17:23 43.89944 9.78996 19691 ft 368 kts 300°
2026-05-07 17:23 43.91413 9.76078 20340 ft 370 kts 300°
2026-05-07 17:24 43.92892 9.73138 20976 ft 373 kts 300°
2026-05-07 17:24 43.94382 9.70173 21601 ft 376 kts 299°
2026-05-07 17:24 43.95882 9.67185 22217 ft 379 kts 299°
2026-05-07 17:24 43.97396 9.64167 22824 ft 382 kts 299°
2026-05-07 17:25 43.98918 9.61129 23408 ft 385 kts 299°
2026-05-07 17:25 44.00458 9.58053 23920 ft 388 kts 299°
2026-05-07 17:25 44.02003 9.54963 24429 ft 390 kts 298°
2026-05-07 17:25 44.03554 9.51860 24936 ft 392 kts 298°
2026-05-07 17:26 44.05112 9.48737 25428 ft 394 kts 298°
2026-05-07 17:26 44.06676 9.45599 25899 ft 396 kts 298°
2026-05-07 17:26 44.08252 9.42435 26359 ft 399 kts 298°
2026-05-07 17:26 44.09835 9.39253 26832 ft 401 kts 297°
2026-05-07 17:27 44.11403 9.36098 27274 ft 403 kts 297°
2026-05-07 17:27 44.13031 9.32843 27705 ft 407 kts 299°
2026-05-07 17:27 44.14861 9.29852 28114 ft 417 kts 308°
2026-05-07 17:27 44.17073 9.27159 28550 ft 425 kts 313°
2026-05-07 17:28 44.19370 9.24550 28955 ft 428 kts 313°
2026-05-07 17:28 44.21696 9.21939 29327 ft 431 kts 313°
2026-05-07 17:28 44.24036 9.19309 29697 ft 433 kts 313°
2026-05-07 17:28 44.26383 9.16659 30078 ft 435 kts 313°
2026-05-07 17:29 44.28736 9.13985 30382 ft 437 kts 313°
2026-05-07 17:29 44.31096 9.11289 30677 ft 439 kts 312°
2026-05-07 17:29 44.33460 9.08579 31025 ft 440 kts 312°
2026-05-07 17:29 44.35818 9.05871 31488 ft 437 kts 312°
2026-05-07 17:30 44.38158 9.03181 31956 ft 435 kts 312°
2026-05-07 17:30 44.40491 9.00492 32376 ft 434 kts 312°
2026-05-07 17:30 44.42818 8.97806 32774 ft 433 kts 312°
2026-05-07 17:30 44.45139 8.95125 33272 ft 429 kts 312°
2026-05-07 17:31 44.47427 8.92483 33825 ft 426 kts 312°
2026-05-07 17:31 44.49717 8.89829 34050 ft 428 kts 312°
2026-05-07 17:31 44.52016 8.87158 34296 ft 429 kts 312°
2026-05-07 17:31 44.54308 8.84496 34660 ft 427 kts 312°
2026-05-07 17:32 44.56599 8.81833 34891 ft 429 kts 312°
2026-05-07 17:32 44.58902 8.79152 35111 ft 431 kts 312°
2026-05-07 17:32 44.61213 8.76460 35403 ft 431 kts 313°
2026-05-07 17:32 44.62737 8.74686 35636 ft 430 kts 313°
2026-05-07 17:33 44.65780 8.71139 35996 ft 430 kts 313°
2026-05-07 17:33 44.68115 8.68412 36219 ft 431 kts 313°
2026-05-07 17:33 44.70418 8.65718 36462 ft 431 kts 313°
2026-05-07 17:33 44.72724 8.63020 36749 ft 430 kts 313°
2026-05-07 17:34 44.74991 8.60365 37005 ft 430 kts 313°
2026-05-07 17:34 44.77292 8.57665 37235 ft 431 kts 313°
2026-05-07 17:34 44.79623 8.54927 37480 ft 431 kts 313°
2026-05-07 17:34 44.81895 8.52257 37738 ft 430 kts 313°
2026-05-07 17:35 44.84194 8.49552 37955 ft 431 kts 314°
2026-05-07 17:35 44.86503 8.46830 37960 ft 435 kts 314°
2026-05-07 17:35 44.91141 8.41358 37965 ft 433 kts 314°
2026-05-07 17:36 44.95741 8.35924 37967 ft 429 kts 314°
2026-05-07 17:36 45.00299 8.30523 37966 ft 427 kts 314°
2026-05-07 17:37 45.04838 8.25133 37970 ft 425 kts 313°
2026-05-07 17:37 45.09363 8.19746 37971 ft 425 kts 313°
2026-05-07 17:38 45.13859 8.14381 37974 ft 426 kts 313°
2026-05-07 17:38 45.18398 8.08954 37971 ft 428 kts 314°
2026-05-07 17:39 45.22951 8.03500 37970 ft 429 kts 314°
2026-05-07 17:39 45.27515 7.98022 37975 ft 430 kts 314°
2026-05-07 17:40 45.32092 7.92515 37969 ft 432 kts 314°
2026-05-07 17:40 45.36684 7.86979 37964 ft 433 kts 314°
2026-05-07 17:41 45.41280 7.81426 37973 ft 434 kts 314°
2026-05-07 17:41 45.45878 7.75859 37936 ft 431 kts 314°
2026-05-07 17:42 45.50402 7.70373 37950 ft 424 kts 314°
2026-05-07 17:42 45.54107 7.65868 37949 ft 418 kts 314°
2026-05-07 17:43 45.56309 7.63172 38122 ft 418 kts 314°
2026-05-07 17:43 45.58540 7.60446 37955 ft 425 kts 314°
2026-05-07 17:43 45.63066 7.54923 37962 ft 431 kts 314°
2026-05-07 17:44 45.67569 7.49202 37966 ft 435 kts 314°
2026-05-07 17:44 45.72150 7.43663 37998 ft 426 kts 314°
2026-05-07 17:45 45.76624 7.38180 37924 ft 421 kts 314°
2026-05-07 17:45 45.81052 7.32693 37922 ft 420 kts 314°
2026-05-07 17:46 45.85464 7.27203 37937 ft 420 kts 314°
2026-05-07 17:46 45.89882 7.21690 37945 ft 422 kts 314°
2026-05-07 17:47 45.94294 7.16179 37948 ft 424 kts 314°
2026-05-07 17:47 45.98773 7.10574 37965 ft 424 kts 314°
2026-05-07 17:48 46.03188 7.05035 37980 ft 423 kts 314°
2026-05-07 17:48 46.07615 6.99468 37978 ft 423 kts 314°
2026-05-07 17:49 46.12070 6.93853 37985 ft 423 kts 314°
2026-05-07 17:49 46.16467 6.88300 37997 ft 424 kts 314°
2026-05-07 17:50 46.20936 6.82642 38006 ft 425 kts 314°
2026-05-07 17:50 46.25354 6.77037 37999 ft 426 kts 314°
2026-05-07 17:51 46.29816 6.71364 37998 ft 428 kts 314°
2026-05-07 17:51 46.34286 6.65668 38006 ft 429 kts 314°
2026-05-07 17:52 46.38766 6.59945 37994 ft 429 kts 314°
2026-05-07 17:52 46.43238 6.54222 37998 ft 429 kts 314°
2026-05-07 17:53 46.47705 6.48491 38005 ft 428 kts 314°
2026-05-07 17:53 46.52162 6.42760 38007 ft 427 kts 314°
2026-05-07 17:54 46.56615 6.37019 38046 ft 430 kts 314°
2026-05-07 17:54 46.58859 6.34119 38154 ft 433 kts 314°
2026-05-07 17:54 46.61113 6.31204 38386 ft 433 kts 314°
2026-05-07 17:55 46.63364 6.28293 38654 ft 433 kts 314°
2026-05-07 17:55 46.65611 6.25383 38829 ft 433 kts 314°
2026-05-07 17:55 46.67862 6.22462 38976 ft 433 kts 314°
2026-05-07 17:55 46.70114 6.19538 39132 ft 434 kts 314°
2026-05-07 17:56 46.72364 6.16613 39284 ft 434 kts 314°
2026-05-07 17:56 46.74619 6.13678 39432 ft 434 kts 314°
2026-05-07 17:56 46.76871 6.10743 39597 ft 434 kts 314°
2026-05-07 17:56 46.79124 6.07804 39748 ft 434 kts 314°
2026-05-07 17:57 46.81378 6.04860 39877 ft 435 kts 314°
2026-05-07 17:57 46.82868 6.02911 39954 ft 435 kts 314°
2026-05-07 17:57 46.88120 5.96031 40029 ft 438 kts 314°
2026-05-07 17:58 46.92648 5.90085 40029 ft 437 kts 314°
2026-05-07 17:58 46.97163 5.84143 40028 ft 436 kts 314°
2026-05-07 17:59 47.01667 5.78200 40029 ft 435 kts 314°
2026-05-07 17:59 47.06161 5.72257 40024 ft 435 kts 314°
2026-05-07 18:00 47.10648 5.66308 40022 ft 434 kts 314°
2026-05-07 18:00 47.15126 5.60357 40026 ft 434 kts 314°
2026-05-07 18:01 47.19602 5.54395 40032 ft 434 kts 314°
2026-05-07 18:01 47.24073 5.48424 40026 ft 434 kts 314°
2026-05-07 18:02 47.30787 5.39434 40028 ft 435 kts 314°
2026-05-07 18:03 47.35262 5.33423 40027 ft 436 kts 314°
2026-05-07 18:03 47.39741 5.27391 40013 ft 436 kts 314°
2026-05-07 18:04 47.44223 5.21343 40036 ft 437 kts 314°
2026-05-07 18:04 47.48708 5.15275 40028 ft 437 kts 314°
2026-05-07 18:05 47.53195 5.09189 40033 ft 438 kts 314°
2026-05-07 18:05 47.57686 5.03083 40043 ft 439 kts 314°
2026-05-07 18:06 47.62180 4.96958 40042 ft 439 kts 314°
2026-05-07 18:06 47.66678 4.90813 40033 ft 440 kts 314°
2026-05-07 18:07 47.71173 4.84658 40036 ft 440 kts 314°
2026-05-07 18:07 47.75665 4.78491 40038 ft 440 kts 314°
2026-05-07 18:08 47.80153 4.72315 40037 ft 440 kts 314°
2026-05-07 18:08 47.84639 4.66125 40035 ft 439 kts 314°
2026-05-07 18:09 47.89114 4.59936 40037 ft 439 kts 314°
2026-05-07 18:09 47.93587 4.53733 40037 ft 439 kts 314°
2026-05-07 18:10 47.98058 4.47519 40030 ft 439 kts 314°
2026-05-07 18:10 48.02519 4.41303 40040 ft 438 kts 314°
2026-05-07 18:11 48.06939 4.35129 40037 ft 438 kts 314°
2026-05-07 18:11 48.11385 4.28903 40043 ft 438 kts 314°
2026-05-07 18:12 48.15855 4.22629 40042 ft 438 kts 314°
2026-05-07 18:12 48.20292 4.16383 40045 ft 438 kts 314°
2026-05-07 18:13 48.24698 4.10166 40051 ft 438 kts 314°
2026-05-07 18:13 48.29128 4.03902 40047 ft 438 kts 314°
2026-05-07 18:14 48.33557 3.97621 40055 ft 438 kts 313°
2026-05-07 18:14 48.37983 3.91329 40047 ft 438 kts 313°
2026-05-07 18:15 48.42409 3.85022 40048 ft 438 kts 313°
2026-05-07 18:15 48.46832 3.78704 40043 ft 438 kts 313°
2026-05-07 18:16 48.51253 3.72371 40039 ft 439 kts 313°
2026-05-07 18:16 48.55677 3.66019 40037 ft 439 kts 313°
2026-05-07 18:17 48.60100 3.59652 40035 ft 439 kts 313°
2026-05-07 18:17 48.64520 3.53272 40036 ft 440 kts 313°
2026-05-07 18:18 48.68942 3.46875 40037 ft 440 kts 313°
2026-05-07 18:18 48.73363 3.40461 40036 ft 440 kts 313°
2026-05-07 18:19 48.77785 3.34030 40039 ft 440 kts 313°
2026-05-07 18:19 48.82206 3.27584 40040 ft 441 kts 313°
2026-05-07 18:20 48.86624 3.21125 40044 ft 441 kts 313°
2026-05-07 18:20 48.91041 3.14652 40042 ft 441 kts 313°
2026-05-07 18:21 48.95447 3.08177 40045 ft 441 kts 313°
2026-05-07 18:21 48.99827 3.01724 40043 ft 441 kts 313°
2026-05-07 18:22 49.04225 2.95228 40051 ft 440 kts 313°
2026-05-07 18:22 49.08619 2.88721 40048 ft 440 kts 313°
2026-05-07 18:23 49.13009 2.82203 40050 ft 440 kts 313°
2026-05-07 18:23 49.17393 2.75677 40049 ft 440 kts 313°
2026-05-07 18:24 49.21775 2.69136 40049 ft 440 kts 313°
2026-05-07 18:24 49.26150 2.62589 40045 ft 440 kts 313°
2026-05-07 18:25 49.30521 2.56031 40047 ft 439 kts 313°
2026-05-07 18:25 49.34859 2.49504 40045 ft 439 kts 313°
2026-05-07 18:26 49.38509 2.44001 40052 ft 439 kts 313°
2026-05-07 18:26 49.42868 2.37412 40048 ft 440 kts 313°
2026-05-07 18:27 49.47229 2.30801 40052 ft 440 kts 313°
2026-05-07 18:27 49.51594 2.24169 40048 ft 440 kts 313°
2026-05-07 18:28 49.55950 2.17532 40048 ft 441 kts 312°
2026-05-07 18:28 49.60304 2.10880 40049 ft 441 kts 312°
2026-05-07 18:29 49.64628 2.04257 40048 ft 441 kts 312°
2026-05-07 18:29 49.69005 1.97534 40047 ft 441 kts 312°
2026-05-07 18:30 49.73323 1.90885 40044 ft 441 kts 312°
2026-05-07 18:30 49.77666 1.84178 40044 ft 441 kts 312°
2026-05-07 18:31 49.82004 1.77463 40049 ft 441 kts 312°
2026-05-07 18:31 49.86339 1.70732 40050 ft 441 kts 312°
2026-05-07 18:32 49.90672 1.63985 40045 ft 441 kts 312°
2026-05-07 18:32 49.94997 1.57236 40045 ft 441 kts 312°
2026-05-07 18:33 49.99342 1.50512 40045 ft 442 kts 314°
2026-05-07 18:33 50.01631 1.47275 39665 ft 449 kts 316°
2026-05-07 18:33 50.03994 1.44087 39204 ft 449 kts 316°
2026-05-07 18:33 50.06366 1.40933 38659 ft 448 kts 316°
2026-05-07 18:34 50.08738 1.37771 37957 ft 449 kts 316°
2026-05-07 18:34 50.11090 1.34613 37551 ft 443 kts 316°
2026-05-07 18:34 50.13402 1.31483 37099 ft 438 kts 316°
2026-05-07 18:34 50.15684 1.28375 36704 ft 433 kts 316°
2026-05-07 18:35 50.17934 1.25297 36292 ft 428 kts 316°
2026-05-07 18:35 50.20160 1.22243 35907 ft 424 kts 316°
2026-05-07 18:35 50.22362 1.19218 35504 ft 420 kts 316°
2026-05-07 18:35 50.24548 1.16211 35104 ft 416 kts 316°
2026-05-07 18:36 50.26684 1.13270 34709 ft 413 kts 316°
2026-05-07 18:36 50.28858 1.10273 34311 ft 410 kts 316°
2026-05-07 18:36 50.30955 1.07379 33901 ft 406 kts 316°
2026-05-07 18:36 50.33068 1.04460 33449 ft 403 kts 315°
2026-05-07 18:37 50.35158 1.01570 33032 ft 400 kts 316°
2026-05-07 18:37 50.37231 0.98697 32656 ft 395 kts 315°
2026-05-07 18:37 50.39282 0.95853 32256 ft 392 kts 316°
2026-05-07 18:37 50.41312 0.93036 31874 ft 388 kts 315°
2026-05-07 18:38 50.43327 0.90236 31497 ft 385 kts 315°
2026-05-07 18:38 50.45327 0.87470 31126 ft 382 kts 316°
2026-05-07 18:38 50.47348 0.84778 30757 ft 380 kts 317°
2026-05-07 18:38 50.49368 0.82128 30397 ft 377 kts 317°
2026-05-07 18:39 50.51370 0.79492 30022 ft 375 kts 317°
2026-05-07 18:39 50.53355 0.76863 29597 ft 372 kts 317°
2026-05-07 18:39 50.55318 0.74253 29216 ft 368 kts 317°
2026-05-07 18:39 50.57266 0.71659 28789 ft 365 kts 317°
2026-05-07 18:40 50.59195 0.69086 28428 ft 361 kts 317°
2026-05-07 18:40 50.61104 0.66536 28049 ft 358 kts 317°
2026-05-07 18:40 50.62994 0.64009 27683 ft 355 kts 317°
2026-05-07 18:40 50.64867 0.61502 27312 ft 352 kts 317°
2026-05-07 18:41 50.66728 0.59007 26961 ft 349 kts 317°
2026-05-07 18:41 50.68573 0.56533 26596 ft 347 kts 316°
2026-05-07 18:41 50.70380 0.54105 26256 ft 345 kts 316°
2026-05-07 18:41 50.72220 0.51631 25901 ft 342 kts 316°
2026-05-07 18:42 50.74026 0.49200 25546 ft 340 kts 316°
2026-05-07 18:42 50.75822 0.46782 25209 ft 338 kts 316°
2026-05-07 18:42 50.77583 0.44408 24859 ft 336 kts 316°
2026-05-07 18:42 50.79380 0.41982 24519 ft 335 kts 316°
2026-05-07 18:43 50.81123 0.39627 24191 ft 333 kts 316°
2026-05-07 18:43 50.82882 0.37249 23845 ft 332 kts 316°
2026-05-07 18:43 50.84636 0.34875 23465 ft 331 kts 316°
2026-05-07 18:43 50.86379 0.32512 23057 ft 330 kts 316°
2026-05-07 18:44 50.88116 0.30155 22683 ft 328 kts 316°
2026-05-07 18:44 50.89839 0.27816 22310 ft 325 kts 316°
2026-05-07 18:44 50.91552 0.25487 21983 ft 323 kts 316°
2026-05-07 18:44 50.93250 0.23176 21634 ft 321 kts 316°
2026-05-07 18:45 50.94939 0.20875 21289 ft 319 kts 316°
2026-05-07 18:45 50.96615 0.18590 20953 ft 317 kts 316°
2026-05-07 18:45 50.98282 0.16315 20619 ft 315 kts 316°
2026-05-07 18:45 50.99939 0.14051 20287 ft 314 kts 316°
2026-05-07 18:46 51.01592 0.11795 20106 ft 312 kts 317°
2026-05-07 18:46 51.03306 0.09701 20072 ft 312 kts 322°
2026-05-07 18:46 51.05077 0.07743 20050 ft 307 kts 323°
2026-05-07 18:46 51.06814 0.05869 20027 ft 297 kts 323°
2026-05-07 18:47 51.08487 0.04065 20030 ft 284 kts 323°
2026-05-07 18:47 51.10080 0.02334 20028 ft 271 kts 322°
2026-05-07 18:47 51.11604 0.00667 20028 ft 262 kts 322°
2026-05-07 18:47 51.13087 -0.00965 20046 ft 259 kts 322°
2026-05-07 18:48 51.14591 -0.02629 20063 ft 268 kts 322°
2026-05-07 18:48 51.16143 -0.04352 20068 ft 274 kts 322°
2026-05-07 18:48 51.17703 -0.06083 20055 ft 272 kts 322°
2026-05-07 18:48 51.19251 -0.07801 20047 ft 270 kts 322°
2026-05-07 18:49 51.20787 -0.09509 19993 ft 268 kts 322°
2026-05-07 18:49 51.22316 -0.11211 19755 ft 268 kts 322°
2026-05-07 18:49 51.23850 -0.12922 19382 ft 271 kts 322°
2026-05-07 18:49 51.25420 -0.14675 18786 ft 283 kts 322°
2026-05-07 18:50 51.27093 -0.16549 18012 ft 301 kts 322°
2026-05-07 18:50 51.28835 -0.18498 17394 ft 309 kts 323°
2026-05-07 18:50 51.30600 -0.20471 17007 ft 310 kts 323°
2026-05-07 18:50 51.32359 -0.22438 16693 ft 308 kts 322°
2026-05-07 18:51 51.34110 -0.24399 16376 ft 306 kts 322°
2026-05-07 18:51 51.35850 -0.26349 16094 ft 305 kts 323°
2026-05-07 18:51 51.37608 -0.28325 16072 ft 312 kts 323°
2026-05-07 18:51 51.39385 -0.30322 16055 ft 311 kts 323°
2026-05-07 18:52 51.41146 -0.32293 16041 ft 307 kts 325°
2026-05-07 18:52 51.43124 -0.33567 16049 ft 311 kts 350°
2026-05-07 18:52 51.45287 -0.33415 16057 ft 316 kts 14°
2026-05-07 18:52 51.47342 -0.32129 16062 ft 319 kts 24°
2026-05-07 18:53 51.49350 -0.30589 16052 ft 320 kts 25°
2026-05-07 18:53 51.51351 -0.28999 16049 ft 321 kts 26°
2026-05-07 18:53 51.53355 -0.27408 16045 ft 321 kts 25°
2026-05-07 18:53 51.55345 -0.25845 15981 ft 316 kts 25°
2026-05-07 18:54 51.57314 -0.24311 15703 ft 314 kts 25°
2026-05-07 18:54 51.59275 -0.22793 15305 ft 316 kts 25°
2026-05-07 18:54 51.61271 -0.21253 14933 ft 316 kts 25°
2026-05-07 18:54 51.63248 -0.19729 14634 ft 314 kts 25°
2026-05-07 18:55 51.65213 -0.18215 14336 ft 312 kts 25°
2026-05-07 18:55 51.67168 -0.16707 14016 ft 311 kts 25°
2026-05-07 18:55 51.69115 -0.15205 13685 ft 310 kts 26°
2026-05-07 18:55 51.71054 -0.13708 13351 ft 308 kts 26°
2026-05-07 18:56 51.72981 -0.12218 13016 ft 307 kts 26°
2026-05-07 18:56 51.74900 -0.10735 12689 ft 305 kts 26°
2026-05-07 18:56 51.76805 -0.09260 12358 ft 304 kts 26°
2026-05-07 18:56 51.78703 -0.07786 12043 ft 302 kts 26°
2026-05-07 18:57 51.80590 -0.06316 11698 ft 298 kts 26°
2026-05-07 18:57 51.82459 -0.04855 11170 ft 299 kts 26°
2026-05-07 18:57 51.84325 -0.03391 10745 ft 297 kts 26°
2026-05-07 18:57 51.86172 -0.01935 10325 ft 294 kts 26°
2026-05-07 18:58 51.88005 -0.00484 9870 ft 293 kts 26°
2026-05-07 18:58 51.89822 0.00961 9464 ft 289 kts 26°
2026-05-07 18:58 51.91615 0.02397 9043 ft 286 kts 26°
2026-05-07 18:58 51.93392 0.03832 8610 ft 285 kts 26°
2026-05-07 18:59 51.95143 0.05258 8257 ft 280 kts 26°
2026-05-07 18:59 51.96741 0.07051 7790 ft 281 kts 43°
2026-05-07 18:59 51.98113 0.09291 7426 ft 278 kts 45°
2026-05-07 18:59 51.99437 0.11567 7027 ft 277 kts 45°
2026-05-07 19:00 52.00740 0.13844 6664 ft 271 kts 45°
2026-05-07 19:00 52.01989 0.16051 6297 ft 261 kts 46°
2026-05-07 19:00 52.03215 0.18226 5671 ft 262 kts 46°
2026-05-07 19:00 52.04436 0.20388 5162 ft 258 kts 46°
2026-05-07 19:01 52.05638 0.22510 4604 ft 255 kts 49°
2026-05-07 19:01 52.06437 0.25038 4054 ft 250 kts 81°
2026-05-07 19:01 52.06302 0.27679 3956 ft 225 kts 113°
2026-05-07 19:01 52.05446 0.29601 3753 ft 207 kts 138°
2026-05-07 19:02 52.04378 0.31138 3323 ft 203 kts 141°
2026-05-07 19:02 52.03332 0.32586 3179 ft 190 kts 141°
2026-05-07 19:02 52.02360 0.33936 3042 ft 179 kts 142°
2026-05-07 19:02 52.01270 0.34837 2774 ft 174 kts 162°
2026-05-07 19:03 52.00140 0.35496 2546 ft 171 kts 159°
2026-05-07 19:03 51.99036 0.36172 2503 ft 169 kts 159°
2026-05-07 19:03 51.97914 0.36429 2469 ft 163 kts 195°
2026-05-07 19:03 51.96932 0.35509 2359 ft 164 kts 209°
2026-05-07 19:04 51.96018 0.34466 2144 ft 157 kts 212°
2026-05-07 19:04 51.95158 0.33408 1933 ft 155 kts 214°
2026-05-07 19:04 51.94369 0.32292 1734 ft 147 kts 218°
2026-05-07 19:04 51.93631 0.31189 1533 ft 143 kts 218°
2026-05-07 19:05 51.92899 0.30093 1341 ft 142 kts 218°
2026-05-07 19:05 51.92173 0.28999 1121 ft 143 kts 218°
2026-05-07 19:05 51.91432 0.27886 913 ft 147 kts 218°
2026-05-07 19:05 51.90682 0.26758 701 ft 148 kts 218°
2026-05-07 19:06 51.89941 0.25627 511 ft 144 kts 219°
2026-05-07 19:06 51.88602 0.23635 351 ft 98 kts 223°
2026-05-07 19:06 51.88273 0.23137 347 ft 28 kts 221°